Location: Unspecified
(0.0000°N, 0.0000°E)
Time: 07:55:03
(UTC+00:00)

ISS - Pass Details

Date: 19 November 2017
Orbit: 402 x 407 km, 51.6° (Epoch: 21 November)

Event Time Altitude Azimuth Distance (km) Brightness Sun altitude
Rises 18:26:55 0° 203° (SSW) 2,323 0.7 -9.7°
Reaches altitude 10° 18:29:05 10° 194° (SSW) 1,461 -0.5 -10.3°
Maximum altitude 18:32:09 36° 126° (SE) 655 -3.1 -11.0°
Enters shadow 18:34:05 18° 67° (ENE) 1,058 -2.4 -11.4°
